Regional Weather Roundup
Issued by NWS

Home | Current Version | Previous Version | Graphics & Text | Print | Product List | Glossary On
Versions: 1 2 3 4 5 6 7 8 9 10 11 12 13 14 15 16 17 18 19 20 21 22 23 24 25 26 27 28 29 30 31 32 33 34 35 36 37 38 39 40 41 42 43 44 45 46 47 48 49 50
000
ASUS43 KDTX 022010
RWRMI
MICHIGAN HOURLY REGIONAL WEATHER ROUNDUP
NATIONAL WEATHER SERVICE DETROIT/PONTIAC MI
400 PM EDT TUE SEP 02 2014

NOTE: "FAIR" INDICATES FEW OR NO CLOUDS BELOW 12,000 FEET WITH NO
SIGNIFICANT WEATHER AND/OR OBSTRUCTION TO VISIBILITY.

MIZ047>049-052>055-059>063-066>070-074>076-081>083-022100-
SOUTHEAST LOWER MICHIGAN

CITY           SKY/WX    TMP DP  RH WIND       PRES   REMARKS
ADRIAN         MOSUNNY   79  63  57 NW12G22   29.90R
ALMA           MOSUNNY   78  53  41 W14       29.88R
ANN ARBOR      PTSUNNY   78  63  59 NW9       29.87S
BAD AXE        CLOUDY    75  60  58 W9        29.85S
CARO           MOSUNNY   76  60  57 NW8       29.86R
DETROIT CITY   PTSUNNY   77  68  73 W7        29.86F
DETROIT        PTSUNNY   78  68  71 W10       29.86F
FLINT          PTSUNNY   80  59  48 W13G18    29.87S
GROSSE ILE     CLOUDY    75  70  83 SW6       29.86R
HILLSDALE      PTSUNNY   76  64  66 W7        29.92R
HOWELL         MOSUNNY   75  58  54 W9        29.88S

CITY           SKY/WX    TMP DP  RH WIND       PRES   REMARKS
JACKSON        MOSUNNY   78  60  53 NW8       29.90R
LAMBERTVILLE   LGT RAIN  73  63  68 CALM      29.89R
LANSING        PTSUNNY   78  59  51 NW10      29.89R
LAPEER         FAIR      75  57  53 W10       29.87S
MASON          PTSUNNY   75  60  59 W10       29.90R
MONROE         PTSUNNY   75  66  73 SW7       29.86R
MT. CLEMENS    PTSUNNY   77  65  66 W8        29.83F
PONTIAC        CLOUDY    77  57  50 W13       29.86F
PORT HOPE        N/A     77  59  53 W7        29.82S
PORT HURON     PTSUNNY   75  66  73 S3        29.84F
TRI CITIES     SUNNY     79  55  43 W14       29.87R
TROY           CLOUDY    80  58  47 W13       29.87S
SAGINAW HB     MOSUNNY   79  52  38 NW12G20   29.85S
$$
MIZ043>046-050>051-056>058-064>065-071>073-077>080-022100-
SOUTHWEST LOWER MICHIGAN

CITY           SKY/WX    TMP DP  RH WIND       PRES   REMARKS
BATTLE CREEK   MOSUNNY   77  60  55 W13       29.91R
BENTON HARBOR  MOSUNNY   76  65  68 W10       29.92R
BIG RAPIDS     MOSUNNY   77  56  48 NW9G18    29.89S
COLDWATER      MOSUNNY   80  63  56 NW9       29.91S
FREMONT        FAIR      79  45  29 W12       29.89R
HOLLAND        SUNNY     78  60  53 W8        29.92R
GRAND RAPIDS   MOSUNNY   79  58  48 NW16      29.90R
IONIA          FAIR      80  55  42 NW15      29.88S
KALAMAZOO      PTSUNNY   78  61  55 NW13      29.91R
LUDINGTON      PTSUNNY   74  62  65 W7        29.90S
MARSHALL       PTSUNNY   78  60  53 NW5G21    29.90R
MOUNT PLEASANT MOSUNNY   78  54  42 W10G17    29.87R
MUSKEGON       PTSUNNY   77  57  50 SW8       29.91R
SOUTH HAVEN    MOSUNNY   77  66  68 W8        29.92S
$$
MIZ016>042-022100-
NORTHERN LOWER MICHIGAN

CITY           SKY/WX    TMP DP  RH WIND       PRES   REMARKS
ALPENA         PTSUNNY   75  53  46 W9        29.83S
BEAVER ISLAND  CLOUDY    70  60  71 SW10      29.84F
BELLAIRE       PTSUNNY   74  55  51 W5        29.85F
CADILLAC       CLOUDY    73  57  57 W12       29.89F
CHARLEVOIX     CLOUDY    71  56  58 SW12      29.88S
FRANKFORT      CLOUDY    72  60  64 W6        29.87F
GAYLORD        PTSUNNY   70  51  51 W9        29.87S
GRAYLING       PTSUNNY   74  54  48 W6        29.88S
HARBOR SPRINGS PTSUNNY   72  57  59 W9        29.85S
HOUGHTON LAKE  CLOUDY    74  55  51 W12       29.88S
MANISTEE       CLOUDY    73  54  49 SW7       29.89F
OSCODA         PTSUNNY   77  55  47 W10G16    29.82R
PELLSTON       PTSUNNY   72  54  53 W13       29.85
ROGERS CITY    PTSUNNY   73  55  53 W9G20     29.84R
TRAVERSE CITY  CLOUDY    76  53  44 W13G22    29.85S
$$
MIZ007>008-015-022100-
EASTERN UPPER MICHIGAN

CITY           SKY/WX    TMP DP  RH WIND       PRES   REMARKS
KINROSS        PTSUNNY   73  52  46 W9        29.81R
MACKINAC ISLAN PTSUNNY   66  60  79 SW10G17   29.83S
NEWBERRY       CLOUDY    71  55  55 SW8       29.81S
S. S. MARIE    PTSUNNY   71  57  61 NW7       29.80S
MUNISING         N/A     70  58  65 NW9       29.80R
$$
MIZ004>006-011>014-085-022100-
CENTRAL UPPER MICHIGAN

CITY           SKY/WX    TMP DP  RH WIND       PRES   REMARKS
MANISTIQUE     CLOUDY    71  62  74 S12       29.81F
ESCANABA       MOSUNNY   75  54  46 NW13G23   29.81S
MENOMINEE      MOSUNNY   73  61  64 SW7       29.84R
SAWYER-GWINN   SUNNY     73  48  40 W13G22    29.82S
$$
MIZ001>003-009>011-084-022100-
WESTERN UPPER MICHIGAN

CITY           SKY/WX    TMP DP  RH WIND       PRES   REMARKS
IRON MOUNTAIN  MOSUNNY   76  50  40 W8G16     29.83S
HOUGHTON       SUNNY     71  49  45 W16       29.81R
COPPER HARBOR    N/A     74  49  41 VRB7G20   29.77S
$$

ABBREVIATIONS USED IN REMARKS
   TC - TEMPERATURE IN CELSIUS
  WCI - WIND CHILL INDEX
   HX - HEAT INDEX
  VSB - VISIBILITY




USA.gov is the U.S. government's official web portal to all federal, state and local government web resources and services.